Time,TemperatureF,DewpointF,PressureIn,WindDirection,WindDirectionDegrees,WindSpeedMPH,WindSpeedGustMPH,Humidity,HourlyPrecipIn,Conditions,Clouds,dailyrainin,SoftwareType,DateUTC
2013-08-18 00:12:00,67.0,56.0,30.06,SSE,157,0.0,3.0,69,0.00,,,0.00,,2013-08-18 05:12:00,
2013-08-18 00:22:00,67.0,56.0,30.06,South,169,1.0,5.0,69,0.00,,,0.00,,2013-08-18 05:22:00,
2013-08-18 00:42:00,67.0,57.0,30.06,South,175,0.0,5.0,70,0.00,,,0.00,,2013-08-18 05:42:00,
2013-08-18 00:52:00,67.0,57.0,30.06,South,180,0.0,6.0,70,0.00,,,0.00,,2013-08-18 05:52:00,
2013-08-18 01:11:00,66.0,57.0,30.06,South,190,1.0,5.0,72,0.00,,,0.00,,2013-08-18 06:11:00,
2013-08-18 01:21:00,65.0,56.0,30.07,South,186,0.0,4.0,74,0.00,,,0.00,,2013-08-18 06:21:00,
2013-08-18 01:42:00,65.0,56.0,30.07,South,188,0.0,4.0,74,0.00,,,0.00,,2013-08-18 06:42:00,
2013-08-18 01:52:00,65.0,56.0,30.06,South,190,0.0,4.0,74,0.00,,,0.00,,2013-08-18 06:52:00,
2013-08-18 02:11:00,64.0,56.0,30.07,South,190,1.0,6.0,76,0.00,,,0.00,,2013-08-18 07:11:00,
2013-08-18 02:22:00,65.0,56.0,30.07,South,182,1.0,6.0,74,0.00,,,0.00,,2013-08-18 07:22:00,
2013-08-18 02:42:00,65.0,56.0,30.06,South,186,3.0,7.0,72,0.00,,,0.00,,2013-08-18 07:42:00,
2013-08-18 02:52:00,65.0,56.0,30.06,South,182,0.0,7.0,72,0.00,,,0.00,,2013-08-18 07:52:00,
2013-08-18 03:12:00,65.0,56.0,30.06,South,169,2.0,7.0,74,0.00,,,0.00,,2013-08-18 08:12:00,
2013-08-18 03:21:00,63.0,56.0,30.06,South,169,0.0,0.0,77,0.00,,,0.00,,2013-08-18 08:21:00,
2013-08-18 03:52:00,64.0,56.0,30.06,South,184,2.0,7.0,76,0.00,,,0.00,,2013-08-18 08:52:00,
2013-08-18 04:11:00,64.0,56.0,30.06,South,184,3.0,7.0,75,0.00,,,0.00,,2013-08-18 09:11:00,
2013-08-18 04:21:00,64.0,56.0,30.06,South,183,2.0,7.0,75,0.00,,,0.00,,2013-08-18 09:21:00,
2013-08-18 04:43:00,63.0,56.0,30.06,South,188,3.0,7.0,77,0.00,,,0.00,,2013-08-18 09:43:00,
2013-08-18 04:53:00,64.0,56.0,30.06,South,181,0.0,5.0,76,0.00,,,0.00,,2013-08-18 09:53:00,
2013-08-18 05:13:00,63.0,56.0,30.06,South,181,0.0,0.0,78,0.00,,,0.00,,2013-08-18 10:13:00,
2013-08-18 05:22:00,62.0,56.0,30.06,South,181,0.0,0.0,80,0.00,,,0.00,,2013-08-18 10:22:00,
2013-08-18 05:42:00,61.0,55.0,30.06,South,181,0.0,0.0,81,0.00,,,0.00,,2013-08-18 10:42:00,
2013-08-18 05:52:00,61.0,55.0,30.07,South,181,0.0,0.0,81,0.00,,,0.00,,2013-08-18 10:52:00,
2013-08-18 06:11:00,61.0,55.0,30.07,South,173,1.0,5.0,81,0.00,,,0.00,,2013-08-18 11:11:00,
2013-08-18 06:22:00,61.0,55.0,30.07,South,175,0.0,5.0,81,0.00,,,0.00,,2013-08-18 11:22:00,
2013-08-18 06:42:00,61.0,55.0,30.07,South,171,2.0,4.0,81,0.00,,,0.00,,2013-08-18 11:42:00,
2013-08-18 06:52:00,61.0,55.0,30.07,South,171,1.0,4.0,81,0.00,,,0.00,,2013-08-18 11:52:00,
2013-08-18 07:11:00,61.0,55.0,30.08,SSE,168,0.0,5.0,81,0.00,,,0.00,,2013-08-18 12:11:00,
2013-08-18 07:21:00,61.0,55.0,30.09,SSE,168,0.0,5.0,82,0.00,,,0.00,,2013-08-18 12:21:00,
2013-08-18 07:42:00,61.0,55.0,30.08,SSE,163,1.0,4.0,81,0.00,,,0.00,,2013-08-18 12:42:00,
2013-08-18 07:52:00,62.0,56.0,30.09,SSE,159,0.0,4.0,80,0.00,,,0.00,,2013-08-18 12:52:00,
2013-08-18 08:11:00,63.0,56.0,30.09,SSE,150,2.0,7.0,78,0.00,,,0.00,,2013-08-18 13:11:00,
2013-08-18 08:21:00,64.0,57.0,30.08,SSE,163,2.0,7.0,77,0.00,,,0.00,,2013-08-18 13:21:00,
2013-08-18 08:42:00,65.0,57.0,30.08,SSE,157,3.0,8.0,76,0.00,,,0.00,,2013-08-18 13:42:00,
2013-08-18 08:52:00,66.0,58.0,30.08,SSE,163,0.0,7.0,75,0.00,,,0.00,,2013-08-18 13:52:00,
2013-08-18 09:11:00,67.0,58.0,30.09,South,169,2.0,6.0,74,0.00,,,0.00,,2013-08-18 14:11:00,
2013-08-18 09:21:00,67.0,58.0,30.09,SSE,161,2.0,9.0,73,0.00,,,0.00,,2013-08-18 14:21:00,
2013-08-18 09:42:00,68.0,58.0,30.09,SSE,153,4.0,9.0,71,0.00,,,0.00,,2013-08-18 14:42:00,
2013-08-18 09:53:00,69.0,59.0,30.09,SE,141,5.0,10.0,70,0.00,,,0.00,,2013-08-18 14:53:00,
2013-08-18 10:11:00,70.0,60.0,30.09,SSW,193,2.0,8.0,70,0.00,,,0.00,,2013-08-18 15:11:00,
2013-08-18 10:22:00,70.0,58.0,30.09,SSE,150,7.0,13.0,66,0.00,,,0.00,,2013-08-18 15:22:00,
2013-08-18 10:43:00,70.0,59.0,30.09,SSE,162,3.0,10.0,68,0.00,,,0.00,,2013-08-18 15:43:00,
2013-08-18 10:53:00,71.0,59.0,30.09,South,178,6.0,10.0,65,0.00,,,0.00,,2013-08-18 15:53:00,
2013-08-18 11:12:00,72.0,57.0,30.08,South,171,7.0,14.0,59,0.00,,,0.00,,2013-08-18 16:12:00,
2013-08-18 11:13:00,72.0,59.0,30.09,South,182,4.0,11.0,64,0.00,,,0.00,,2013-08-18 16:13:00,
2013-08-18 11:23:00,72.0,58.0,30.09,South,169,5.0,14.0,62,0.00,,,0.00,,2013-08-18 16:23:00,
2013-08-18 11:42:00,72.0,57.0,30.08,South,171,7.0,14.0,59,0.00,,,0.00,,2013-08-18 16:42:00,
2013-08-18 11:52:00,72.0,57.0,30.08,South,171,7.0,14.0,59,0.00,,,0.00,,2013-08-18 16:52:00,
2013-08-18 12:02:00,72.0,57.0,30.08,South,171,7.0,14.0,59,0.00,,,0.00,,2013-08-18 17:02:00,
2013-08-18 18:42:00,78.0,62.0,29.98,South,190,4.0,9.0,57,0.00,,,0.00,,2013-08-18 23:42:00,
2013-08-18 18:52:00,78.0,61.0,29.98,South,186,5.0,10.0,55,0.00,,,0.00,,2013-08-18 23:52:00,
2013-08-18 19:11:00,77.0,61.0,29.98,South,177,2.0,10.0,58,0.00,,,0.00,,2013-08-19 00:11:00,
2013-08-18 19:21:00,77.0,62.0,29.98,South,172,3.0,10.0,59,0.00,,,0.00,,2013-08-19 00:21:00,
2013-08-18 19:42:00,76.0,61.0,29.98,SSE,160,2.0,6.0,60,0.00,,,0.00,,2013-08-19 00:42:00,
2013-08-18 19:52:00,76.0,62.0,29.98,SE,140,1.0,5.0,62,0.00,,,0.00,,2013-08-19 00:52:00,
2013-08-18 20:11:00,75.0,62.0,29.98,SSE,159,0.0,4.0,65,0.00,,,0.00,,2013-08-19 01:11:00,
2013-08-18 20:22:00,74.0,62.0,29.98,SSE,150,2.0,6.0,66,0.00,,,0.00,,2013-08-19 01:22:00,
2013-08-18 20:42:00,73.0,62.0,29.98,SE,143,2.0,6.0,68,0.00,,,0.00,,2013-08-19 01:42:00,
2013-08-18 20:52:00,72.0,61.0,29.98,SSE,147,0.0,4.0,68,0.00,,,0.00,,2013-08-19 01:52:00,
2013-08-18 21:11:00,72.0,62.0,29.99,SSE,157,0.0,5.0,70,0.00,,,0.00,,2013-08-19 02:11:00,
2013-08-18 21:21:00,72.0,62.0,29.99,SE,126,1.0,5.0,70,0.00,,,0.00,,2013-08-19 02:21:00,
2013-08-18 21:42:00,71.0,62.0,29.99,SE,126,0.0,2.0,72,0.00,,,0.00,,2013-08-19 02:42:00,
2013-08-18 21:52:00,71.0,62.0,29.99,SE,136,0.0,3.0,73,0.00,,,0.00,,2013-08-19 02:52:00,
2013-08-18 22:11:00,71.0,62.0,29.99,SE,139,2.0,6.0,73,0.00,,,0.00,,2013-08-19 03:11:00,
2013-08-18 22:21:00,70.0,61.0,30.00,SE,140,2.0,7.0,74,0.00,,,0.00,,2013-08-19 03:21:00,
2013-08-18 22:42:00,70.0,62.0,30.00,SE,132,3.0,8.0,75,0.00,,,0.00,,2013-08-19 03:42:00,
2013-08-18 22:53:00,69.0,61.0,30.00,SE,127,3.0,6.0,76,0.00,,,0.00,,2013-08-19 03:53:00,
2013-08-18 23:12:00,69.0,61.0,30.00,SE,142,3.0,8.0,77,0.00,,,0.00,,2013-08-19 04:12:00,
2013-08-18 23:23:00,69.0,62.0,30.00,South,181,1.0,7.0,78,0.00,,,0.00,,2013-08-19 04:23:00,
2013-08-18 23:42:00,69.0,61.0,30.01,South,182,4.0,9.0,77,0.00,,,0.00,,2013-08-19 04:42:00,
2013-08-18 23:53:00,69.0,61.0,30.00,South,188,5.0,12.0,77,0.00,,,0.00,,2013-08-19 04:53:00,